Simultaneous Nadir Overpasses (SNOs) Predictions

Prediction of SNOs between AURA and NPP Satellite Orbit:

Table of predicted SNOs for the next 14.0 days since TLE Epoch: 11/8/2025
Index Date (AURA) Time (AURA) Lat,Lon (AURA) SZA (AURA ) Date (NPP) Time (NPP) Lat,Lon (NPP) SZA (NPP ) Distance(km) Time Diff (sec)
1 11/09/2025 18:14:32 -81.17, 10.43 75.86 11/09/2025 18:13:22 -81.18, 10.44 75.82 0.55 70
2 11/09/2025 19:03:50 81.19, 178.33 104.13 11/09/2025 19:04:06 81.19, 178.15 104.15 3.04 16
3 11/12/2025 04:35:59 81.18, 35.19 104.80 11/12/2025 04:35:03 81.19, 35.29 104.83 1.92 56
4 11/12/2025 05:25:18 -81.19,-156.98 75.21 11/12/2025 05:25:47 -81.19,-157.06 75.22 1.45 29
5 11/14/2025 14:57:25 -81.20, 60.20 74.60 11/14/2025 14:56:44 -81.19, 60.03 74.56 3.19 41
6 11/14/2025 15:46:43 81.21,-131.94 105.39 11/14/2025 15:47:27 81.20,-131.87 105.35 1.25 44
7 11/17/2025 01:18:50 81.19, 84.78 106.03 11/17/2025 01:18:25 81.19, 84.76 106.05 0.24 25
8 11/17/2025 02:08:09 -81.20,-107.37 73.99 11/17/2025 02:09:08 -81.21,-107.20 74.05 2.94 59
9 11/19/2025 11:40:14 -81.20, 109.67 73.42 11/19/2025 11:40:05 -81.20, 109.76 73.43 1.63 9



Historial Predications of SNOs between AURA and NPP
